COSMOS 2539 (44457 NORAD) Tracking and Keplerian Element Data

This shows tracking and keplerian element data for the satellite.

Feedback or suggestion? Click here.




ElementValue
Catalog44457
NameCOSMOS 2539
Epoch Orbit19
Epoch Day228.56787626
Epoch Year2019
RAAN48.9249
Inclination0.0267
Eccentricity0.0017293
Argument of Perigee304.2878
Mean Anonmoly239.4286
Mean Motion1.00296148
Decay Rate1E-08
L11 44457U 19048A 19228.56787626 .00000001 00000-0 00000-0 0 9996
L22 44457 0.0267 48.9249 0017293 304.2878 239.4286 1.00296148 196

Live tracking and technical data element details for COSMOS 2539 (NORAD 44457). COSMOS 2539 can be tracked NOW for your location showing map with azimuth and elevation plus other details from your city location.

Track the satellite on the map from your city or location and see movement details for azimuth, elevation, latitude, longitude, range, height, and movement on the map or in text.







IsCatalogInMostPopularTable: catalog: 44457, numindb: 2
Update: records affected: 1



GetName: 44457 COSMOS 2539

Hit Count: updated at: Wed, 21 Aug 2019 11:23:48 GMT